Location: Slanting_Bridge
(35.6330°N, 80.9830°W)
Time: 16:39:44
(UTC-04:00)

Hamsat - Visible Passes

Search period start: 23 May 2017 00:00
Search period end: 02 June 2017 00:00
Orbit: 586 x 618 km, 97.6° (Epoch: 22 May)

Date Brightness Start Highest point End Pass type
(mag) Time Alt. Az. Time Alt. Az. Time Alt. Az.
23 May ? 05:02:27 10° NNE 05:06:24 38° E 05:10:18 10° SSE visible
24 May ? 05:14:02 10° NNE 05:18:10 54° E 05:22:15 10° S visible
25 May ? 05:25:42 10° NNE 05:29:56 78° ESE 05:34:05 10° S visible
26 May ? 05:37:26 10° N 05:41:39 75° WNW 05:45:48 10° SSW visible
28 May ? 04:26:52 10° ENE 04:29:09 14° E 04:31:23 10° SE visible
29 May ? 04:37:54 10° NE 04:40:58 20° E 04:44:00 10° SE visible
30 May ? 04:49:12 10° NE 04:52:46 27° E 04:56:17 10° SSE visible
31 May ? 05:00:40 10° NNE 05:04:33 37° E 05:08:24 10° SSE visible
01 Jun ? 05:12:13 10° NNE 05:16:19 52° E 05:20:21 10° S visible
